Flag for Slovakia Weather past 2 weeks in Prievidza, Slovakia

Now
74 °F

Scattered clouds.


Feels Like: 77 °F
Forecast: 45 / 75 °F
Wind: N/A

Location: Prievidza

Current Time: Sep 16, 2014 at 4:27:38 PM

Latest Report: Sep 16, 2014 at 4:00 PM


Visibility: 14 mi

Pressure: 30.06 "Hg

Humidity: 53%

Dew point: 55 °F

Location of PrievidzaLocation

Historic Weather in Prievidza — Graph

°F

Prievidza temperature yesterday

Maximum temperature yesterday: 77 °F (at 3:00 PM)
Minimum temperature yesterday: 56 °F (at 11:00 PM)
Average temperature yesterday: 63 °F

Past Weeks' High & Low Weather Summary

 TemperatureHumidityPressure
High84 °F (Sep 5, 4:00 PM)97% (Sep 2, 12:00 AM)30.11 "Hg (Sep 2, 12:00 AM)
Low53 °F (Sep 9, 7:00 AM)38% (Sep 5, 4:00 PM)29.80 "Hg (Sep 12, 5:00 AM)
Average65 °F79%29.97 "Hg
* Reported Sep 1 3:00 PM — Sep 16 3:00 PM, Prievidza, Weather by CustomWeather, © 2014

Note: Actual official high and low records may vary slightly from our data, if they occured in-between our weather recording intervals... More about our weather records

Advertising

Prievidza weather history for previous 24 hours

 ConditionsComfort  
Time TempWeatherWind HumidityBarometerVisibility
3:00 PM
Sep 16
71 °FScattered clouds.3 mph59%30.08 "Hg12 mi
2:00 PM69 °FOvercast.N/A60%30.09 "Hg14 mi
1:00 PM69 °FOvercast.3 mph56%30.10 "Hg16 mi
12:00 PM68 °FOvercast.N/A70%30.10 "Hg12 mi
11:00 AM65 °FPartly sunny.N/A73%30.09 "Hg11 mi
10:00 AM63 °FMild.3 mph78%30.09 "HgN/A
9:00 AM64 °FPartly sunny.3 mph79%30.09 "Hg11 mi
8:00 AM57 °FPartly sunny.2 mph92%30.10 "Hg9 mi
7:00 AM56 °FFog.2 mph94%30.09 "Hg6 mi
6:00 AM55 °FFog.N/A95%30.09 "Hg4 mi
5:00 AM55 °FFog.N/A95%30.09 "Hg6 mi
4:00 AM54 °FFog.N/A96%30.09 "Hg2 mi
3:00 AM54 °FFog.No wind96%30.10 "Hg3 mi
2:00 AM55 °FFog.N/A97%30.09 "Hg4 mi
1:00 AM54 °FFog.1 mph95%30.11 "Hg2 mi
12:00 AM55 °FFog.N/A95%30.10 "Hg3 mi
11:00 PM
Sep 15
56 °FFog.No wind94%30.10 "Hg4 mi
10:00 PM57 °FFog.No wind94%30.10 "Hg4 mi
9:00 PM59 °FPassing clouds.N/A91%30.09 "Hg7 mi
8:00 PM60 °FLight rain. Overcast.1 mph85%30.09 "Hg9 mi
7:00 PM63 °FOvercast.N/A80%30.06 "Hg14 mi
6:00 PM63 °FSprinkles. Overcast.7 mph81%30.05 "Hg11 mi
5:00 PM64 °FThunderstorms. Overcast.6 mph82%30.04 "Hg7 mi
4:00 PM70 °FThundershowers. Overcast.2 mph75%30.01 "Hg16 mi
Weather by CustomWeather, © 2014

See weather overviewHow to use our weather pages